Location: Marcé
(47.5801°N, 0.3280°W)
Time: 16:07:30
(UTC+01:00)

Transit 2A - Pass Details

Date: 02 December 2021
Orbit: 591 x 967 km, 66.7° (Epoch: 21 January)

Event Time Altitude Azimuth Distance (km) Brightness Sun altitude
Rises 02:27:17 0° 229° (SW) 3,318 - -57.9°
Reaches altitude 10° 02:29:40 10° 234° (SW) 2,445 - -57.6°
Maximum altitude 02:35:16 54° 312° (NW) 1,075 - -56.9°
Drops below altitude 10° 02:41:22 10° 29° (NNE) 2,664 - -56.1°
Exits shadow 02:43:21 - 33° (NNE) 3,376 9.8 -55.9°
Sets 02:44:05 0° 34° (NE) 3,640 10.0 -55.8°
